• Join FlightAware (Why Join?)
  • Login
  • US Flag GB Flag 
23:28 EST


 

Airport Tracker/Info


-or-


 

Live Flight TrackerFlight Track Log ✈ UAL383 ✈ 10-May-2013 ✈ PHNL - KDEN

Flight Track Log - Related Links

Times and Time Zones

All times are in EDT time to prevent confusion due to time zone crossing. See the UAL383 flight status page for this flight to view local times or setup timezone preferences in your user account.

Time Position Orientation Groundspeed Altitude Reporting Facility
EDT Latitude Longitude Course Direction KTS MPH feet Rate Location/Type
04:30 21.3167 -157.9000 145° Southeast 210 242 1,000  Level Honolulu Center
04:31 21.2500 -157.8500 145° Southeast 250 288 3,100 2,100 Climbing Honolulu Center
04:32 21.2167 -157.8000 126° Southeast 280 322 5,200 2,220 Climbing Honolulu Center
04:33 21.1833 -157.7167 113° Southeast 290 334 7,600 2,340 Climbing Honolulu Center
04:34 21.2000 -157.6333 78° East 300 345 9,900 1,740 Climbing Honolulu Center
04:35 21.2500 -157.5667 51° Northeast 330 380 11,100 1,200 Climbing Honolulu Center
04:36 21.3500 -157.5000 32° Northeast 370 426 12,400 1,500 Climbing Honolulu Center
04:37 21.4333 -157.4333 37° Northeast 390 449 14,200 1,680 Climbing Honolulu Center
04:38 21.5333 -157.3833 25° Northeast 400 460 15,900 1,620 Climbing Honolulu Center
04:39 21.6167 -157.3167 37° Northeast 400 460 17,500 1,500 Climbing Honolulu Center
04:40 21.7167 -157.2500 32° Northeast 410 472 18,900 1,380 Climbing Honolulu Center
04:41 21.8167 -157.1833 32° Northeast 410 472 20,300 1,320 Climbing Honolulu Center
04:42 21.9167 -157.1167 32° Northeast 420 483 21,600 1,140 Climbing Honolulu Center
04:43 22.0167 -157.0500 32° Northeast 430 495 22,600 1,140 Climbing Honolulu Center
04:44 22.1167 -156.9833 32° Northeast 430 495 23,900 1,020 Climbing Honolulu Center
04:45 22.2167 -156.9167 32° Northeast 440 506 24,700 900 Climbing Honolulu Center
04:46 22.3333 -156.8333 33° Northeast 450 518 25,800 900 Climbing Honolulu Center
04:47 22.4333 -156.7667 32° Northeast 460 529 26,600 840 Climbing Honolulu Center
04:48 22.5500 -156.7000 28° Northeast 470 541 27,500 780 Climbing Honolulu Center
04:49 22.6667 -156.6167 33° Northeast 470 541 28,200 720 Climbing Honolulu Center
04:50 22.7833 -156.5500 28° Northeast 470 541 29,000 900 Climbing Honolulu Center
04:51 22.8833 -156.4667 38° Northeast 480 552 30,100 1,020 Climbing Honolulu Center
04:52 23.0000 -156.4000 28° Northeast 470 541 31,100 960 Climbing Honolulu Center
04:53 23.1000 -156.3333 32° Northeast 470 541 32,100 900 Climbing Honolulu Center
04:54 23.2333 -156.2500 30° Northeast 470 541 32,900 780 Climbing Honolulu Center
04:55 23.3333 -156.1833 31° Northeast 470 541 33,700 780 Climbing Honolulu Center
04:56 23.4500 -156.1000 33° Northeast 460 529 34,500 600 Climbing Honolulu Center
04:57 23.5667 -156.0333 28° Northeast 460 529 35,000 240 Climbing Honolulu Center
04:58 23.6667 -155.9500 37° Northeast 450 518 35,000  Level Honolulu Center
04:59 23.7833 -155.8833 28° Northeast 460 529 35,000  Level Honolulu Center
05:00 23.9000 -155.8000 33° Northeast 470 541 35,000  Level Honolulu Center
05:01 24.0000 -155.7333 31° Northeast 470 541 35,000  Level Honolulu Center
05:04 24.1830 -155.6134 31° Northeast  Level FlightAware Approximate
05:10 24.7167 -155.2667 55° Northeast 477 549 35,000  Level Oakland Oceanic (ODAPS)
05:11 24.8956 -154.9652 55° Northeast  Level FlightAware Approximate
05:12 24.9721 -154.8429 55° Northeast  Level FlightAware Approximate
05:13 25.0485 -154.7205 55° Northeast  Level FlightAware Approximate
05:14 25.1248 -154.5979 55° Northeast  Level FlightAware Approximate
05:15 25.2017 -154.4740 56° Northeast  Level FlightAware Approximate
05:16 25.3946 -154.1833 56° Northeast 477 549 35,000  Level FlightAware Transoceanic
05:17 25.4694 -154.0622 56° Northeast 477 549 35,000  Level FlightAware Transoceanic
05:18 25.5441 -153.9409 56° Northeast 477 549 35,000  Level FlightAware Transoceanic
05:19 25.6188 -153.8195 56° Northeast 477 549 35,000  Level FlightAware Transoceanic
05:20 25.6933 -153.6980 56° Northeast 477 549 35,000  Level FlightAware Transoceanic
05:21 25.7677 -153.5762 56° Northeast 477 549 35,000  Level FlightAware Transoceanic
05:22 25.8421 -153.4544 56° Northeast 477 549 35,000  Level FlightAware Transoceanic
05:23 25.9163 -153.3323 56° Northeast 477 549 35,000  Level FlightAware Transoceanic
05:24 25.9904 -153.2101 56° Northeast 477 549 35,000  Level FlightAware Transoceanic
05:25 26.0644 -153.0878 56° Northeast 477 549 35,000  Level FlightAware Transoceanic
05:26 26.1383 -152.9653 56° Northeast 477 549 35,000  Level FlightAware Transoceanic
05:27 26.2122 -152.8427 56° Northeast 477 549 35,000  Level FlightAware Transoceanic
05:28 26.2859 -152.7199 56° Northeast 477 549 35,000  Level FlightAware Transoceanic
05:29 26.3595 -152.5969 56° Northeast 477 549 35,000  Level FlightAware Transoceanic
05:30 26.4330 -152.4738 56° Northeast 477 549 35,000  Level FlightAware Transoceanic
05:31 26.5064 -152.3505 56° Northeast 477 549 35,000  Level FlightAware Transoceanic
05:32 26.5797 -152.2271 56° Northeast 477 549 35,000  Level FlightAware Transoceanic
05:33 26.6529 -152.1035 57° Northeast 477 549 35,000  Level FlightAware Transoceanic
05:34 26.7259 -151.9798 57° Northeast 477 549 35,000  Level FlightAware Transoceanic
05:35 26.7989 -151.8559 57° Northeast 477 549 35,000  Level FlightAware Transoceanic
05:36 26.8718 -151.7318 57° Northeast 477 549 35,000  Level FlightAware Transoceanic
05:37 26.9445 -151.6076 57° Northeast 477 549 35,000  Level FlightAware Transoceanic
05:38 27.0172 -151.4832 57° Northeast 477 549 35,000  Level FlightAware Transoceanic
05:39 27.0897 -151.3587 57° Northeast 477 549 35,000  Level FlightAware Transoceanic
05:40 27.1621 -151.2340 57° Northeast 477 549 35,000  Level FlightAware Transoceanic
05:41 27.2344 -151.1091 57° Northeast 477 549 35,000  Level FlightAware Transoceanic
05:42 27.3066 -150.9841 57° Northeast 477 549 35,000  Level FlightAware Transoceanic
05:43 27.3787 -150.8589 57° Northeast 477 549 35,000  Level FlightAware Transoceanic
05:44 27.4507 -150.7335 57° Northeast 477 549 35,000  Level FlightAware Transoceanic
05:45 27.5226 -150.6080 57° Northeast 477 549 35,000  Level FlightAware Transoceanic
05:46 27.5943 -150.4823 57° Northeast 477 549 35,000  Level FlightAware Transoceanic
05:47 27.6660 -150.3565 57° Northeast 477 549 35,000  Level FlightAware Transoceanic
05:48 27.7375 -150.2305 57° Northeast 477 549 35,000  Level FlightAware Transoceanic
05:49 27.8089 -150.1043 57° Northeast 477 549 35,000  Level FlightAware Transoceanic
05:50 27.8802 -149.9780 57° Northeast 477 549 35,000  Level FlightAware Transoceanic
05:51 27.9514 -149.8515 58° Northeast 477 549 35,000  Level FlightAware Transoceanic
05:52 28.0225 -149.7248 58° Northeast 477 549 35,000  Level FlightAware Transoceanic
05:53 28.0934 -149.5979 58° Northeast 477 549 35,000  Level FlightAware Transoceanic
05:54 28.1643 -149.4709 58° Northeast 477 549 35,000  Level FlightAware Transoceanic
05:55 28.2350 -149.3437 58° Northeast 477 549 35,000  Level FlightAware Transoceanic
05:56 28.3056 -149.2164 58° Northeast 477 549 35,000  Level FlightAware Transoceanic
05:57 28.3761 -149.0889 58° Northeast 477 549 35,000  Level FlightAware Transoceanic
05:58 28.4464 -148.9612 58° Northeast 477 549 35,000  Level FlightAware Transoceanic
05:59 28.5167 -148.8333 58° Northeast 477 549 35,000  Level FlightAware Transoceanic
06:00 28.5941 -148.6912 58° Northeast 477 549 35,000  Level FlightAware Transoceanic
06:00 28.5167 -148.8333 58° Northeast 507 583 35,000  Level Oakland Oceanic (ODAPS)
06:01 28.6714 -148.5488 58° Northeast 477 549 35,000  Level FlightAware Transoceanic
06:02 28.7485 -148.4062 58° Northeast 477 549 35,000  Level FlightAware Transoceanic
06:03 28.8255 -148.2634 58° Northeast 477 549 35,000  Level FlightAware Transoceanic
06:04 28.9023 -148.1204 59° Northeast 477 549 35,000  Level FlightAware Transoceanic
06:05 28.9790 -147.9772 59° Northeast 477 549 35,000  Level FlightAware Transoceanic
06:06 29.0555 -147.8338 59° Northeast 477 549 35,000  Level FlightAware Transoceanic
06:07 29.1069 -147.7371 59° Northeast 507 583 35,000  Level FlightAware Transoceanic
06:08 29.1801 -147.5992 59° Northeast 507 583 35,000  Level FlightAware Transoceanic
06:09 29.2531 -147.4610 59° Northeast 507 583 35,000  Level FlightAware Transoceanic
06:10 29.3260 -147.3227 59° Northeast 507 583 35,000  Level FlightAware Transoceanic
06:11 29.3987 -147.1842 59° Northeast 507 583 35,000  Level FlightAware Transoceanic
06:12 29.4713 -147.0455 59° Northeast 507 583 35,000  Level FlightAware Transoceanic
06:13 29.5437 -146.9066 59° Northeast 507 583 35,000  Level FlightAware Transoceanic
06:14 29.6160 -146.7675 59° Northeast 507 583 35,000  Level FlightAware Transoceanic
06:15 29.6881 -146.6283 59° Northeast 507 583 35,000  Level FlightAware Transoceanic
06:16 29.7601 -146.4888 59° Northeast 507 583 35,000  Level FlightAware Transoceanic
06:17 29.8320 -146.3491 59° Northeast 507 583 35,000  Level FlightAware Transoceanic
06:18 29.9037 -146.2092 59° Northeast 507 583 35,000  Level FlightAware Transoceanic
06:19 29.9753 -146.0691 60° Northeast 507 583 35,000  Level FlightAware Transoceanic
06:20 30.0467 -145.9288 60° Northeast 507 583 35,000  Level FlightAware Transoceanic
06:21 30.1180 -145.7883 60° Northeast 507 583 35,000  Level FlightAware Transoceanic
06:22 30.1891 -145.6476 60° Northeast 507 583 35,000  Level FlightAware Transoceanic
06:23 30.2600 -145.5066 60° Northeast 507 583 35,000  Level FlightAware Transoceanic
06:24 30.3308 -145.3655 60° Northeast 507 583 35,000  Level FlightAware Transoceanic
06:25 30.4015 -145.2242 60° Northeast 507 583 35,000  Level FlightAware Transoceanic
06:26 30.4720 -145.0827 60° Northeast 507 583 35,000  Level FlightAware Transoceanic
06:27 30.5424 -144.9410 60° Northeast 507 583 35,000  Level FlightAware Transoceanic
06:28 30.6126 -144.7990 60° Northeast 507 583 35,000  Level FlightAware Transoceanic
06:29 30.6826 -144.6569 60° Northeast 507 583 35,000  Level FlightAware Transoceanic
06:30 30.7525 -144.5146 60° Northeast 507 583 35,000  Level FlightAware Transoceanic
06:31 30.8223 -144.3720 60° Northeast 507 583 35,000  Level FlightAware Transoceanic
06:32 30.8918 -144.2292 60° Northeast 507 583 35,000  Level FlightAware Transoceanic
06:33 30.9613 -144.0863 61° Northeast 507 583 35,000  Level FlightAware Transoceanic
06:34 31.0305 -143.9431 61° Northeast 507 583 35,000  Level FlightAware Transoceanic
06:35 31.0996 -143.7997 61° Northeast 507 583 35,000  Level FlightAware Transoceanic
06:36 31.1686 -143.6561 61° Northeast 507 583 35,000  Level FlightAware Transoceanic
06:37 31.2374 -143.5123 61° Northeast 507 583 35,000  Level FlightAware Transoceanic
06:38 31.3060 -143.3683 61° Northeast 507 583 35,000  Level FlightAware Transoceanic
06:39 31.3745 -143.2241 61° Northeast 507 583 35,000  Level FlightAware Transoceanic
06:40 31.4428 -143.0797 61° Northeast 507 583 35,000  Level FlightAware Transoceanic
06:41 31.5109 -142.9350 61° Northeast 507 583 35,000  Level FlightAware Transoceanic
06:42 31.5789 -142.7902 61° Northeast 507 583 35,000  Level FlightAware Transoceanic
06:43 31.6467 -142.6451 61° Northeast 507 583 35,000  Level FlightAware Transoceanic
06:44 31.7144 -142.4999 61° Northeast 507 583 35,000  Level FlightAware Transoceanic
06:45 31.7819 -142.3544 61° Northeast 507 583 35,000  Level FlightAware Transoceanic
06:46 31.8492 -142.2087 62° Northeast 507 583 35,000  Level FlightAware Transoceanic
06:47 31.9163 -142.0628 62° Northeast 507 583 35,000  Level FlightAware Transoceanic
06:48 31.9833 -141.9167 47° Northeast 507 583 35,000  Level FlightAware Transoceanic
06:49 32.0873 -141.7862 47° Northeast 507 583 35,000  Level FlightAware Transoceanic
06:49 31.9833 -141.9167 47° Northeast 536 617 35,000  Level Oakland Oceanic (ODAPS)
06:50 32.1911 -141.6555 47° Northeast 507 583 35,000  Level FlightAware Transoceanic
06:51 32.2948 -141.5244 47° Northeast 507 583 35,000  Level FlightAware Transoceanic
06:52 32.3984 -141.3930 47° Northeast 507 583 35,000  Level FlightAware Transoceanic
06:53 32.5018 -141.2614 47° Northeast 507 583 35,000  Level FlightAware Transoceanic
06:54 32.6051 -141.1294 47° Northeast 507 583 35,000  Level FlightAware Transoceanic
06:55 32.7083 -140.9971 47° Northeast 507 583 35,000  Level FlightAware Transoceanic
06:56 32.9968 -140.6246 47° Northeast 536 617 35,000  Level FlightAware Transoceanic
06:57 33.0974 -140.4938 47° Northeast 536 617 35,000  Level FlightAware Transoceanic
06:58 33.1978 -140.3627 48° Northeast 536 617 35,000  Level FlightAware Transoceanic
06:59 33.2982 -140.2313 48° Northeast 536 617 35,000  Level FlightAware Transoceanic
07:00 33.3984 -140.0996 48° Northeast 536 617 35,000  Level FlightAware Transoceanic
07:01 33.4984 -139.9675 48° Northeast 536 617 35,000  Level FlightAware Transoceanic
07:02 33.5984 -139.8352 48° Northeast 536 617 35,000  Level FlightAware Transoceanic
07:03 33.6981 -139.7026 48° Northeast 536 617 35,000  Level FlightAware Transoceanic
07:04 33.7978 -139.5696 48° Northeast 536 617 35,000  Level FlightAware Transoceanic
07:05 33.8973 -139.4364 48° Northeast 536 617 35,000  Level FlightAware Transoceanic
07:06 33.9966 -139.3028 48° Northeast 536 617 35,000  Level FlightAware Transoceanic
07:07 34.0958 -139.1689 48° Northeast 536 617 35,000  Level FlightAware Transoceanic
07:08 34.1949 -139.0347 48° Northeast 536 617 35,000  Level FlightAware Transoceanic
07:09 34.2938 -138.9002 48° Northeast 536 617 35,000  Level FlightAware Transoceanic
07:10 34.3925 -138.7654 48° Northeast 536 617 35,000  Level FlightAware Transoceanic
07:11 34.4911 -138.6302 49° Northeast 536 617 35,000  Level FlightAware Transoceanic
07:12 34.5896 -138.4948 49° Northeast 536 617 35,000  Level FlightAware Transoceanic
07:13 34.6879 -138.3590 49° Northeast 536 617 35,000  Level FlightAware Transoceanic
07:14 34.7861 -138.2229 49° Northeast 536 617 35,000  Level FlightAware Transoceanic
07:15 34.8841 -138.0865 49° Northeast 536 617 35,000  Level FlightAware Transoceanic
07:16 34.9819 -137.9497 49° Northeast 536 617 35,000  Level FlightAware Transoceanic
07:17 35.0797 -137.8126 49° Northeast 536 617 35,000  Level FlightAware Transoceanic
07:18 35.1772 -137.6752 49° Northeast 536 617 35,000  Level FlightAware Transoceanic
07:19 35.2746 -137.5374 49° Northeast 536 617 35,000  Level FlightAware Transoceanic
07:20 35.3718 -137.3994 49° Northeast 536 617 35,000  Level FlightAware Transoceanic
07:21 35.4689 -137.2610 49° Northeast 536 617 35,000  Level FlightAware Transoceanic
07:22 35.5658 -137.1222 49° Northeast 536 617 35,000  Level FlightAware Transoceanic
07:23 35.6626 -136.9832 49° Northeast 536 617 35,000  Level FlightAware Transoceanic
07:24 35.7592 -136.8437 50° Northeast 536 617 35,000  Level FlightAware Transoceanic
07:25 35.8556 -136.7040 50° Northeast 536 617 35,000  Level FlightAware Transoceanic
07:26 35.9519 -136.5639 50° Northeast 536 617 35,000  Level FlightAware Transoceanic
07:27 36.0480 -136.4235 50° Northeast 536 617 35,000  Level FlightAware Transoceanic
07:28 36.1440 -136.2827 50° Northeast 536 617 35,000  Level FlightAware Transoceanic
07:29 36.2398 -136.1416 50° Northeast 536 617 35,000  Level FlightAware Transoceanic
07:30 36.3354 -136.0001 50° Northeast 536 617 35,000  Level FlightAware Transoceanic
07:31 36.4309 -135.8583 50° Northeast 536 617 35,000  Level FlightAware Transoceanic
07:32 36.5261 -135.7161 50° Northeast 536 617 35,000  Level FlightAware Transoceanic
07:33 36.6213 -135.5736 50° Northeast 536 617 35,000  Level FlightAware Transoceanic
07:34 36.7162 -135.4307 50° Northeast 536 617 35,000  Level FlightAware Transoceanic
07:35 36.8110 -135.2875 50° Northeast 536 617 35,000  Level FlightAware Transoceanic
07:36 36.9056 -135.1439 51° Northeast 536 617 35,000  Level FlightAware Transoceanic
07:37 37.0000 -135.0000 61° Northeast 536 617 35,000  Level FlightAware Transoceanic
07:38 37.0710 -134.8405 61° Northeast 536 617 35,000  Level FlightAware Transoceanic
07:38 37.0000 -135.0000 61° Northeast 526 605 35,000  Level Oakland Oceanic (ODAPS)
07:39 37.1418 -134.6806 61° Northeast 536 617 35,000  Level FlightAware Transoceanic
07:40 37.2124 -134.5205 61° Northeast 536 617 35,000  Level FlightAware Transoceanic
07:41 37.2827 -134.3600 61° Northeast 536 617 35,000  Level FlightAware Transoceanic
07:42 37.3529 -134.1993 61° Northeast 536 617 35,000  Level FlightAware Transoceanic
07:43 37.4228 -134.0383 61° Northeast 536 617 35,000  Level FlightAware Transoceanic
07:44 37.5620 -133.7153 62° Northeast 526 605 35,000  Level FlightAware Transoceanic
07:45 37.6313 -133.5533 62° Northeast 526 605 35,000  Level FlightAware Transoceanic
07:46 37.7003 -133.3911 62° Northeast 526 605 35,000  Level FlightAware Transoceanic
07:47 37.7691 -133.2286 62° Northeast 526 605 35,000  Level FlightAware Transoceanic
07:48 37.8377 -133.0657 62° Northeast 526 605 35,000  Level FlightAware Transoceanic
07:49 37.9061 -132.9026 62° Northeast 526 605 35,000  Level FlightAware Transoceanic
07:50 37.9743 -132.7391 62° Northeast 526 605 35,000  Level FlightAware Transoceanic
07:51 38.0422 -132.5754 62° Northeast 526 605 35,000  Level FlightAware Transoceanic
07:52 38.1099 -132.4113 62° Northeast 526 605 35,000  Level FlightAware Transoceanic
07:53 38.1773 -132.2469 62° Northeast 526 605 35,000  Level FlightAware Transoceanic
07:54 38.2446 -132.0823 63° Northeast 526 605 35,000  Level FlightAware Transoceanic
07:55 38.3116 -131.9173 63° Northeast 526 605 35,000  Level FlightAware Transoceanic
07:56 38.3783 -131.7520 63° Northeast 526 605 35,000  Level FlightAware Transoceanic
07:57 38.4449 -131.5864 63° Northeast 526 605 35,000  Level FlightAware Transoceanic
07:58 38.5112 -131.4205 63° Northeast 526 605 35,000  Level FlightAware Transoceanic
07:59 38.5773 -131.2544 63° Northeast 526 605 35,000  Level FlightAware Transoceanic
08:00 38.6431 -131.0879 63° Northeast 526 605 35,000  Level FlightAware Transoceanic
08:01 38.7087 -130.9211 63° Northeast 526 605 35,000  Level FlightAware Transoceanic
08:02 38.7741 -130.7540 63° Northeast 526 605 35,000  Level FlightAware Transoceanic
08:03 38.8392 -130.5865 64° Northeast 526 605 35,000  Level FlightAware Transoceanic
08:04 38.9041 -130.4188 64° Northeast 526 605 35,000  Level FlightAware Transoceanic
08:05 38.9687 -130.2508 64° Northeast 526 605 35,000  Level FlightAware Transoceanic
08:06 39.0331 -130.0825 64° Northeast 526 605 35,000  Level FlightAware Transoceanic
08:07 39.0973 -129.9138 64° Northeast 526 605 35,000  Level FlightAware Transoceanic
08:08 39.1612 -129.7449 64° Northeast 526 605 35,000  Level FlightAware Transoceanic
08:09 39.2249 -129.5756 64° Northeast 526 605 35,000  Level FlightAware Transoceanic
08:10 39.2883 -129.4061 64° Northeast 526 605 35,000  Level FlightAware Transoceanic
08:11 39.3515 -129.2362 64° Northeast 526 605 35,000  Level FlightAware Transoceanic
08:12 39.4144 -129.0660 64° Northeast 526 605 35,000  Level FlightAware Transoceanic
08:13 39.4771 -128.8955 65° Northeast 526 605 35,000  Level FlightAware Transoceanic
08:14 39.5396 -128.7247 65° Northeast 526 605 35,000  Level FlightAware Transoceanic
08:15 39.6017 -128.5536 65° Northeast 526 605 35,000  Level FlightAware Transoceanic
08:16 39.6637 -128.3822 65° Northeast 526 605 35,000  Level FlightAware Transoceanic
08:17 39.7254 -128.2106 65° Northeast 526 605 35,000  Level FlightAware Transoceanic
08:18 39.7868 -128.0385 65° Northeast 526 605 35,000  Level FlightAware Transoceanic
08:19 39.8480 -127.8662 65° Northeast 526 605 35,000  Level FlightAware Transoceanic
08:20 39.9089 -127.6936 65° Northeast 526 605 35,000  Level FlightAware Transoceanic
08:21 39.9696 -127.5206 65° Northeast 526 605 35,000  Level FlightAware Transoceanic
08:22 40.0300 -127.3474 66° East 526 605 35,000  Level FlightAware Transoceanic
08:23 40.0901 -127.1739 66° East 526 605 35,000  Level FlightAware Transoceanic
08:24 40.1500 -127.0000 75° East 526 605 35,000 1,080 Level FlightAware Transoceanic
08:24 40.1050 -127.0922 76° East 500 575 37,000  Climbing Oakland Center
08:25 40.1842 -126.8283 75° East 526 605 35,000 -120 Descending FlightAware Transoceanic
08:25 40.1547 -126.9225 69° East 502 578 36,900  Climbing Oakland Center
08:26 40.2182 -126.6565 76° East 526 605 35,000  Descending FlightAware Transoceanic
08:26 40.1872 -126.7483 76° East 497 572 36,900  Climbing Oakland Center
08:27 40.2519 -126.4845 76° East 526 605 35,000  Descending FlightAware Transoceanic
08:27 40.2236 -126.5742 75° East 498 573 36,900  Climbing Oakland Center
08:28 40.2853 -126.3123 76° East 526 605 35,000 60 Descending FlightAware Transoceanic
08:28 40.2597 -126.4014 75° East 495 570 37,000  Climbing Oakland Center
08:29 40.3185 -126.1400 76° East 526 605 35,000 -120 Descending FlightAware Transoceanic
08:29 40.2961 -126.2250 75° East 500 575 36,900  Climbing Oakland Center
08:30 40.3515 -125.9675 76° East 526 605 35,000 60 Descending FlightAware Transoceanic
08:30 40.3314 -126.0506 75° East 498 573 37,000 1,080 Climbing Oakland Center
08:31 40.3658 -125.8783 75° East 492 566 37,000 -60 Level Oakland Center
08:32 40.3997 -125.7056 76° East 492 566 36,900  Descending Oakland Center
08:33 40.4336 -125.5342 75° East 488 562 37,000  Climbing Oakland Center
08:34 40.4678 -125.3636 75° East 485 558 37,000 -60 Level Oakland Center
08:35 40.4997 -125.1950 76° East 480 552 36,900  Descending Oakland Center
08:36 40.5342 -125.0211 75° East 481 554 37,000  Climbing Seattle Center
08:37 40.5664 -124.8506 76° East 478 550 37,000 -60 Level Seattle Center
08:38 40.5981 -124.6808 76° East 475 547 36,900 -60 Descending Seattle Center
08:39 40.6286 -124.5106 77° East 474 545 36,900  Level Seattle Center
08:40 40.6622 -124.3361 76° East 480 552 36,900  Level Seattle Center
08:41 40.6942 -124.1622 76° East 482 555 37,000  Climbing Seattle Center
08:42 40.7247 -123.9894 77° East 479 551 37,000  Level Seattle Center
08:43 40.7550 -123.8175 77° East 478 550 37,000  Level Seattle Center
08:45 40.7861 -123.6439 77° East 483 556 37,000  Level Seattle Center
08:45 40.8108 -123.5058 77° East 484 557 37,000 -60 Level Seattle Center
08:46 40.8419 -123.3336 77° East 484 557 36,900  Descending Seattle Center
08:47 40.8722 -123.1606 77° East 484 557 37,000  Climbing Seattle Center
08:48 40.9022 -122.9881 77° East 483 556 36,900  Descending Seattle Center
08:49 40.9317 -122.8181 77° East 482 555 37,000  Climbing Oakland Center
08:50 40.9622 -122.6450 77° East 482 555 37,000  Level Oakland Center
08:51 40.9900 -122.4719 78° East 482 555 37,000  Level Oakland Center
08:52 41.0186 -122.3019 77° East 477 549 37,000  Level Oakland Center
08:53 41.0453 -122.1339 78° East 470 541 37,000  Level Oakland Center
08:54 41.0731 -121.9675 77° East 465 535 37,000  Level Oakland Center
08:55 41.0978 -121.8103 78° East 455 524 37,000  Level Oakland Center
08:56 41.1133 -121.6439 83° East 456 525 37,000  Level Oakland Center
08:57 41.1247 -121.4764 85° East 460 529 37,000  Level Seattle Center
08:58 41.1361 -121.3061 85° East 464 534 37,000  Level Seattle Center
08:59 41.1483 -121.1372 84° East 464 534 37,000  Level Seattle Center
09:00 41.1608 -120.9644 84° East 472 543 37,000  Level Seattle Center
09:01 41.1750 -120.7625 85° East 461 531 37,000  Level Seattle Center
09:02 41.1861 -120.5939 85° East 460 529 37,000  Level Seattle Center
09:03 41.1964 -120.4267 85° East 458 527 37,000  Level Seattle Center
09:04 41.2086 -120.2611 84° East 453 521 37,000  Level Seattle Center
09:05 41.2178 -120.0972 86° East 449 517 37,000  Level Seattle Center
09:06 41.2281 -119.9333 85° East 448 516 37,000  Level Seattle Center
09:07 41.2392 -119.7681 85° East 450 518 37,000  Level Seattle Center
09:08 41.2475 -119.6033 86° East 448 516 37,000  Level Seattle Center
09:09 41.2561 -119.4392 86° East 447 514 37,000  Level Seattle Center
09:10 41.2650 -119.2756 86° East 446 513 37,000  Level Seattle Center
09:11 41.2736 -119.1161 86° East 449 517 37,000  Level Salt Lake Center
09:12 41.2825 -118.9561 86° East 451 519 37,000  Level Salt Lake Center
09:13 41.2897 -118.7972 86° East 451 519 37,000  Level Salt Lake Center
09:14 41.2992 -118.6106 86° East 451 519 37,000  Level Salt Lake Center
09:15 41.3078 -118.4497 86° East 453 521 37,000  Level Salt Lake Center
09:16 41.3150 -118.2878 87° East 456 525 37,000  Level Salt Lake Center
09:17 41.3231 -118.1269 86° East 455 524 37,000  Level Salt Lake Center
09:18 41.3317 -117.9403 86° East 453 521 37,000  Level Salt Lake Center
09:19 41.3381 -117.7822 87° East 448 516 37,000  Level Salt Lake Center
09:20 41.3447 -117.6186 87° East 449 517 37,000  Level Salt Lake Center
09:21 41.3533 -117.4383 86° East 447 514 37,000  Level Salt Lake Center
09:22 41.3589 -117.2797 87° East 446 513 37,000  Level Salt Lake Center
09:23 41.3656 -117.1211 87° East 447 514 37,000  Level Salt Lake Center
09:25 41.3717 -116.9344 87° East 450 518 37,000  Level Salt Lake Center
09:26 41.3783 -116.7764 87° East 447 514 37,000  Level Salt Lake Center
09:27 41.3836 -116.6189 87° East 445 512 37,000  Level Salt Lake Center
09:28 41.3892 -116.4339 88° East 446 513 37,000  Level Salt Lake Center
09:29 41.3931 -116.2747 88° East 447 514 37,000  Level Salt Lake Center
09:30 41.3972 -116.1139 88° East 451 519 37,000  Level Salt Lake Center
09:31 41.4006 -115.9558 88° East 447 514 37,000  Level Salt Lake Center
09:32 41.4058 -115.7706 88° East 446 513 37,000  Level Salt Lake Center
09:33 41.4094 -115.6128 88° East 445 512 37,000  Level Salt Lake Center
09:34 41.4128 -115.4544 88° East 446 513 37,000  Level Salt Lake Center
09:35 41.4169 -115.2717 88° East 442 509 37,000  Level Salt Lake Center
09:36 41.4200 -115.1150 88° East 441 507 37,000  Level Salt Lake Center
09:37 41.4225 -114.9597 89° East 439 505 37,000  Level Salt Lake Center
09:38 41.4264 -114.7917 88° East 440 506 37,000  Level Salt Lake Center
09:39 41.4294 -114.6311 88° East 436 502 37,000  Level Salt Lake Center
09:40 41.4303 -114.4717 90° East 432 497 37,000  Level Salt Lake Center
09:41 41.4328 -114.3114 89° East 434 499 37,000  Level Salt Lake Center
09:42 41.4350 -114.1514 89° East 433 498 37,000  Level Salt Lake Center
09:43 41.4356 -113.9914 90° East 433 498 37,000  Level Salt Lake Center
09:44 41.4372 -113.8314 89° East 433 498 37,000  Level Salt Lake Center
09:45 41.4386 -113.6375 89° East 435 501 37,000  Level Salt Lake Center
09:46 41.4392 -113.4769 90° East 434 499 37,000  Level Salt Lake Center
09:47 41.4411 -113.3150 89° East 437 503 37,000  Level Salt Lake Center
09:48 41.4403 -113.1536 90° East 436 502 37,000  Level Salt Lake Center
09:49 41.4411 -112.9922 90° East 436 502 37,000  Level Salt Lake Center
09:50 41.4411 -112.8297 90° East 438 504 37,000  Level Salt Lake Center
09:51 41.4417 -112.6667 90° East 440 506 37,000  Level Salt Lake Center
09:52 41.4411 -112.5047 90° East 438 504 37,000  Level Salt Lake Center
09:53 41.4408 -112.3422 90° East 438 504 37,000  Level Salt Lake Center
09:54 41.4406 -112.1794 90° East 439 505 37,000  Level Salt Lake Center
09:55 41.4392 -112.0156 91° East 440 506 37,000  Level Salt Lake Center
09:56 41.4375 -111.8519 91° East 439 505 37,000  Level Salt Lake Center
09:57 41.4361 -111.6881 91° East 440 506 37,000  Level Salt Lake Center
09:58 41.4344 -111.5261 91° East 437 503 37,000  Level Salt Lake Center
09:59 41.4308 -111.3642 92° East 436 502 37,000  Level Salt Lake Center
10:00 41.4289 -111.2036 91° East 432 497 37,000  Level Salt Lake Center
10:01 41.4258 -111.0417 91° East 435 501 37,000  Level Salt Lake Center
10:02 41.4228 -110.8658 91° East 437 503 37,000  Level Salt Lake Center
10:03 41.4203 -110.6856 91° East 438 504 37,000  Level Salt Lake Center
10:04 41.4183 -110.5311 91° East 436 502 37,000  Level Salt Lake Center
10:05 41.4144 -110.3764 92° East 437 503 37,000  Level Salt Lake Center
10:06 41.4097 -110.1956 92° East 437 503 37,000  Level Salt Lake Center
10:07 41.4061 -110.0389 92° East 441 507 37,000  Level Salt Lake Center
10:08 41.4028 -109.8839 92° East 440 506 37,000  Level Salt Lake Center
10:09 41.3978 -109.7019 92° East 441 507 37,000  Level Salt Lake Center
10:10 41.3925 -109.5456 93° East 443 510 37,000 -540 Level Salt Lake Center
10:11 41.3872 -109.3642 92° East 441 507 36,000 -1,020 Descending Salt Lake Center
10:12 41.3806 -109.2072 93° East 447 514 35,000 -540 Descending Salt Lake Center
10:13 41.3769 -109.0242 91° East 454 522 35,000  Level Salt Lake Center
10:14 41.3717 -108.8653 92° East 455 524 35,000  Level Salt Lake Center
10:15 41.3650 -108.6794 93° East 454 522 35,000  Level Salt Lake Center
10:17 41.3581 -108.4906 93° East 454 522 35,000  Level Denver Center
10:18 41.3344 -108.3044 100° East 459 528 35,000  Level Denver Center
10:19 41.2789 -108.1522 116° Southeast 473 544 35,000 -420 Level Denver Center
10:19 41.2322 -108.0275 116° Southeast 477 549 34,300 -1,080 Descending Salt Lake Center
10:20 41.1747 -107.8753 117° Southeast 480 552 33,100 -1,200 Descending Salt Lake Center
10:21 41.1069 -107.7025 117° Southeast 476 548 31,900 -1,080 Descending Salt Lake Center
10:22 41.0508 -107.5536 117° Southeast 472 543 31,000 -720 Descending Salt Lake Center
10:23 41.0342 -107.5039 114° Southeast 468 539 31,000  Level Denver Center
10:24 40.9794 -107.3583 116° Southeast 461 531 31,000  Level Denver Center
10:25 40.9142 -107.1892 117° Southeast 465 535 31,000  Level Denver Center
10:26 40.8475 -107.0183 117° Southeast 467 537 31,000  Level Denver Center
10:27 40.7825 -106.8486 117° Southeast 466 536 31,000  Level Denver Center
10:28 40.7200 -106.6900 117° Southeast 465 535 31,000  Level Denver Center
10:29 40.6617 -106.5408 117° Southeast 458 527 31,000 -300 Level Denver Center
10:30 40.5922 -106.3631 117° Southeast 459 528 30,400 -1,320 Descending Denver Center
10:31 40.5369 -106.2228 117° Southeast 452 520 28,300 -2,160 Descending Denver Center
10:32 40.4756 -106.0692 118° Southeast 445 512 26,000 -2,100 Descending Denver Center
10:33 40.4333 -105.9225 111° Southeast 431 496 24,000 -1,980 Descending Denver Center
10:34 40.4108 -105.7767 101° East 412 474 22,000 -1,740 Descending Denver Center
10:35 40.3875 -105.6336 102° East 406 467 20,500 -1,620 Descending Denver Center
10:36 40.3647 -105.4969 102° East 392 451 18,700 -1,560 Descending Denver Center
10:37 40.3450 -105.3578 100° East 353 406 17,400 -1,500 Descending Denver Center
10:38 40.3281 -105.2294 100° East 336 387 15,700 -1,560 Descending Denver Center
10:40 40.3119 -105.1158 100° East 320 368 14,200 -1,200 Descending Denver Center
10:41 40.2969 -105.0058 100° East 310 357 13,300 -840 Descending Denver Center
10:42 40.2819 -104.9033 101° East 276 318 12,600 -1,020 Descending Denver Center
10:43 40.2217 -104.8592 151° Southeast 254 292 11,300 -1,440 Descending Denver Center
10:44 40.1575 -104.8211 156° South 253 291 9,700 -1,260 Descending Denver Center
10:45 40.0964 -104.7742 150° Southeast 240 276 8,700 -900 Descending Denver Center
10:46 40.0528 -104.7392 148° Southeast 189 217 7,900 -780 Descending Denver Center